Вернуться в каталог

STARLINK-30772

АктивенСвязьVLEO
NORAD 58135·PAYLOAD·🇺🇸 United States

Запущен Oct 22, 2023 с Cape Canaveral Space Force Station

Loading…

Ближайшие Пролёты (ближайшие 24 часа)

TLE

СвежийSource: CelesTrak SupGP

Эпоха: Sep 14, 2026, 20:53 UTC

1 58135C 23162T   26257.87062500 -.00008939  00000+0 -32386-3 0  2578
2 58135  43.0006 144.0131 0001510 268.9924 347.9290 15.27573249    18

Отслеживайте STARLINK-30772 в реальном времени с AllMySat

Download on the App Store